Location: Newark
(54.9867°N, 38.6060°E)
Time: 02:57:28
(UTC+00:00)

Envisat - Visible Passes

Search period start: 23 October 2019 00:00
Search period end: 02 November 2019 00:00
Orbit: 764 x 766 km, 98.1° (Epoch: 22 October)

Date Brightness Start Highest point End Pass type
(mag) Time Alt. Az. Time Alt. Az. Time Alt. Az.
23 Oct 6.5 02:43:42 10° ENE 02:45:12 11° E 02:46:42 10° E visible
23 Oct 3.8 15:42:10 10° S 15:47:08 54° W 15:52:10 10° NNW visible
24 Oct 3.0 15:05:13 10° SSE 15:10:18 83° ENE 15:15:25 10° NNW visible
24 Oct 5.7 16:46:22 10° SW 16:49:58 19° W 16:53:37 10° NW visible
25 Oct 6.0 03:07:43 10° NE 03:11:08 18° E 03:14:33 10° SE visible
25 Oct 4.7 16:08:10 10° SSW 16:12:48 35° W 16:17:29 10° NNW visible
26 Oct 3.5 15:30:47 10° S 15:35:50 65° WSW 15:40:56 10° NNW visible
26 Oct 6.1 17:13:52 10° WSW 17:15:53 12° W 17:17:56 10° WNW visible
27 Oct 5.5 03:32:38 10° NNE 03:36:58 27° E 03:41:16 10° SSE visible
27 Oct 3.0 14:54:00 10° SSE 14:59:03 70° ENE 15:04:07 10° NNW visible
27 Oct 5.4 16:34:34 10° SW 16:38:34 23° W 16:42:36 10° NW visible
28 Oct 6.2 02:56:51 10° NE 02:59:43 15° E 03:02:32 10° ESE visible
28 Oct 4.3 15:56:39 10° SSW 16:01:28 42° W 16:06:18 10° NNW visible
29 Oct 3.2 15:19:27 10° SSE 15:24:32 78° WSW 15:29:40 10° NNW visible
29 Oct 6.0 17:01:35 10° WSW 17:04:26 15° W 17:07:18 10° NW visible
30 Oct 5.8 03:21:34 10° NE 03:25:35 23° E 03:29:34 10° SE visible
30 Oct 3.1 14:42:49 10° SE 14:47:48 58° ENE 14:52:48 10° N visible
30 Oct 5.1 16:22:52 10° SSW 16:27:11 27° W 16:31:32 10° NNW visible
31 Oct 6.3 02:46:15 10° ENE 02:48:15 12° E 02:50:14 10° ESE visible
31 Oct 3.9 15:45:12 10° S 15:50:08 50° W 15:55:06 10° NNW visible
01 Nov 5.0 03:46:41 10° NNE 03:51:20 35° E 03:55:59 10° SSE visible
01 Nov 3.0 15:08:10 10° SSE 15:13:16 88° ENE 15:18:24 10° NNW visible
01 Nov 5.7 16:49:35 10° SW 16:53:00 18° W 16:56:27 10° NW visible
